THOR ABLESTAR DEB *, 18651

Orbit data source: Space-Track

THOR ABLESTAR DEB *, 18651 is space debris in LEO originally from a launch on Thu, 29 Jun 1961 UTC launched from the Air Force Eastern Test Range (AFETR). Debris objects in space refer to the collection of defunct objects orbiting the Earth. Examples of debris include non-operational satellites, rocket bodies, and fragments generated from explosions, collisions, or faulty payload assembly.

Loading next visibility...
Identifier
18651, 1961-015LW
Orbit
LEO
Country
Flag of USUS
Related business
Manufacturer
Unknown
Mission
Spacecraft
Bus & Motor
Unknown
Mass
Unknown
Launch date (UTC)
1961-06-29 (65 years ago)
Launch vehicle
Unknown
Launch site
Air Force Eastern Test Range (AFETR)
Object type
Payload
Rocket body
Debris
Shape & HBR
Unknown shape, 0.2 m
Radar Cross Section
Medium (>0.1 m² and <1 m²)

Expand to show TLE details & history
Last TLE update: 1 day ago

TLE from 1 day ago
0 THOR ABLESTAR DEB *
1 18651U 61015LW  26174.39733832 -.00000013  00000-0  12438-3 0  9998
2 18651  65.6977 224.1874 0752653 277.5289  89.8445 12.40435906605079
Epoch: 2026-06-23T09:32Z
TLE epoch observation values (Epoch: 2026-06-23T09:32:10.030Z)
Latitude
14.50918°
Longitude
176.25433°
Altitude
1,548.797 km
Speed
7.074 km/s
True Right ascension
15h 23m 27s
True Declination
14° 26' 03"
Sunlit
Object was in daylight at epoch
Visualization orbit readout
Latitude
Unknown
Longitude
Unknown
Altitude
Unknown
Speed
Unknown
Apparent Right ascension
Unknown
Apparent Declination
Unknown
Sunlit
N/A
Visualization observer readout
Local Sidereal Time
01:20:41
Azimuth
Unknown
Elevation
Unknown
Doppler factor
Unknown
Orbital elements
Apogee altitude
2,096.579 km
Perigee altitude
910.171 km
Semi-major axis
7,881.512 km
Eccentricity
0.07527
Inclination
65.6977°
RAAN
224.1874°
Arg. of periapsis
277.5289°
True anomaly
98.4391°
Mean anomaly
89.8445°
Eccentric anomaly
94.1456°
Mean motion
3.10191 °/min
Orbital period
116.06 mins
BSTAR
0.00012438
Loading maneuver chart data...
Computing Atmospheric mass density...

Documentation

Showing up to 5 results
|